sat.trackr.live / text

‹ back to catalog

STARLINK-37670

NORAD 69530 · 2026-133Y

PAYLOAD ACTIVE UNKNOWN

§ Identity

Operator
Country
US
Launch date
2026-06-12
Launch site
AFETR
Launch vehicle
Mass (kg)
RCS (m²)

Purposes: comms

External: N2YO · Heavens-Above · Gunter

§ Orbital elements

Epoch: 2026-09-20T05:00:04.242816Z

Period
93.85 min
Inclination
53.1557°
Eccentricity
0.0001359
Mean motion
15.34396007 rev/d
Perigee alt
461.8 km
Apogee alt
463.6 km
Semi-major
6,840.9 km
B*
4.5371e-4
RAAN
230.7607°
Arg perigee
93.2901°
Mean anomaly
266.8257°
Rev number
1,672

§ Raw data

STARLINK-376701 69530U 26133Y   26263.20838244  .00014982  00000+0  45371-3 0  99942 69530  53.1557 230.7607 0001359  93.2901 266.8257 15.34396007 16728

JSON: /api/v1/satellites/69530 · /tle

For live sub-satellite position, see the globe view (requires WebGL).

§ Visibility from observer

Set your observer location to see the next 7 days of passes ≥ 10°. The values pass through the URL so the page stays shareable.

No JS? Fill the form by hand. The geolocation button needs JavaScript.